This is the latest recevied weather packets stored in our database for station/object K4VEB. If no packets are shown the sender has not sent any weather packets the latest 10 day(s).
| Time | Temp. | Humidity | Pressure | Rain* | Wind** | Luminosity | Snow |
|---|---|---|---|---|---|---|---|
| 1777755018 | 21.11° C | 94% | 1009.5 hPa | 0 mm | - | 148 W/m² | - |
| 1777754715 | 21.11° C | 94% | 1009.7 hPa | 0 mm | - | 146 W/m² | - |
| 1777754413 | 21.11° C | 94% | 1009.6 hPa | 0 mm | - | 191 W/m² | - |
| 1777754109 | 21.11° C | 94% | 1009.5 hPa | 0 mm | - | 149 W/m² | - |
| 1777753806 | 21.11° C | 94% | 1009.5 hPa | 0 mm | - | 107 W/m² | - |
| 1777753502 | 20.56° C | 94% | 1009.4 hPa | 0 mm | - | 133 W/m² | - |
| 1777753201 | 20.56° C | 94% | 1009.4 hPa | 0 mm | - | 183 W/m² | - |
| 1777752896 | 20.56° C | 94% | 1009.5 hPa | 0 mm | - | 194 W/m² | - |
| 1777752593 | 20.56° C | 94% | 1009.7 hPa | 1.78 mm | - | 105 W/m² | - |
| 1777752289 | 20.56° C | 94% | 1010.1 hPa | 1.78 mm | - | 72 W/m² | - |
| 1777751987 | 20.56° C | 93% | 1010 hPa | 3.05 mm | - | 30 W/m² | - |
| 1777751684 | 20° C | 93% | 1009.6 hPa | 4.32 mm | - | 29 W/m² | - |
| 1777751380 | 20.56° C | 93% | 1010.5 hPa | 3.05 mm | - | 35 W/m² | - |
| 1777751077 | 20° C | 93% | 1010.9 hPa | 3.05 mm | - | 40 W/m² | - |
| 1777750772 | 20° C | 93% | 1011 hPa | 4.32 mm | - | 42 W/m² | - |
| 1777750470 | 20° C | 93% | 1010.5 hPa | 4.83 mm | - | 39 W/m² | - |
| 1777750165 | 20° C | 93% | 1010.4 hPa | 4.83 mm | - | 35 W/m² | - |
| 1777749863 | 20° C | 93% | 1010.7 hPa | 4.32 mm | - | 35 W/m² | - |
| 1777749560 | 20° C | 93% | 1010.6 hPa | 6.1 mm | - | 37 W/m² | - |
| 1777749258 | 20° C | 92% | 1011.1 hPa | 6.6 mm | - | 37 W/m² | - |
| 1777748955 | 20.56° C | 92% | 1011.4 hPa | 3.05 mm | - | 41 W/m² | - |
| 1777748652 | 20.56° C | 93% | 1011.4 hPa | 3.05 mm | - | 40 W/m² | - |
| 1777748348 | 20.56° C | 93% | 1011.5 hPa | 1.27 mm | - | 36 W/m² | - |
| 1777748043 | 20.56° C | 93% | 1011.6 hPa | 1.78 mm | - | 29 W/m² | - |
| 1777747741 | 20.56° C | 93% | 1011.5 hPa | 1.78 mm | - | 29 W/m² | - |
* Rain latest hour (hover to see other rain measurements)
** Current wind speed in m/s (hover to see current wind gust speed)